Location: Multiple Mirror Telescope
(31.6889°N, 110.8853°W)
Time: 14:44:02
(UTC-07:00)

Hubble Space Telescope - Visible Passes

Search period start: 29 November 2023 00:00
Search period end: 09 December 2023 00:00
Orbit: 519 x 523 km, 28.5° (Epoch: 28 November)

Date Brightness Start Highest point End Pass type
(mag) Time Alt. Az. Time Alt. Az. Time Alt. Az.
29 Nov 1.2 18:05:04 10° WSW 18:09:00 54° S 18:12:38 12° ESE visible
29 Nov 3.1 19:45:52 10° W 19:47:37 22° WSW 19:47:37 22° WSW visible
30 Nov 1.3 17:48:43 10° W 17:52:38 53° S 17:56:34 10° ESE visible
30 Nov 2.4 19:29:34 10° W 19:32:23 29° SW 19:32:23 29° SW visible
01 Dec 2.2 19:13:18 10° WSW 19:16:47 28° SSW 19:17:14 28° S visible
02 Dec 2.6 18:57:01 10° WSW 19:00:21 25° SSW 19:02:10 18° SSE visible
03 Dec 2.8 18:40:46 10° WSW 18:43:54 22° SSW 18:47:03 10° SSE visible
04 Dec 3.1 18:24:32 10° WSW 18:27:26 19° SSW 18:30:21 10° SSE visible
05 Dec 3.4 18:08:21 10° WSW 18:10:57 17° SSW 18:13:33 10° SSE visible
06 Dec 3.5 17:52:15 10° WSW 17:54:27 14° SSW 17:56:38 10° S visible
